OMD191 KDFW-KGYR

Flight info

Callsign OMD191
Flight time 2h 34m
Altitude 36000
Route NELYN6 HOARY JCT EWM SSO SUNSS8
Aircraft A321/M-SDE3FGHIRWY/LB1

Departure

Time 2026-05-07 02:28
Airport Dallas Fort Worth International Airport (KDFW)

Arrival

Time 2026-05-07 05:02
Airport Phoenix Goodyear Airport (KGYR)
Time Latitude Longitude Altitude Speed Heading
2026-05-07 01:52 32.88428 -97.03455 576 ft 0 kts 273°
2026-05-07 02:03 32.88428 -97.03454 576 ft 0 kts 273°
2026-05-07 02:19 32.88434 -97.03467 576 ft 5 kts 307°
2026-05-07 02:19 32.88467 -97.03481 582 ft 4 kts 351°
2026-05-07 02:19 32.88494 -97.03484 585 ft 5 kts 355°
2026-05-07 02:20 32.88537 -97.03487 581 ft 8 kts 358°
2026-05-07 02:20 32.88587 -97.03498 583 ft 7 kts 323°
2026-05-07 02:20 32.88602 -97.03555 584 ft 9 kts 271°
2026-05-07 02:20 32.88603 -97.03640 585 ft 11 kts 271°
2026-05-07 02:21 32.88603 -97.03735 588 ft 11 kts 270°
2026-05-07 02:21 32.88603 -97.03817 595 ft 7 kts 270°
2026-05-07 02:21 32.88604 -97.03857 599 ft 5 kts 271°
2026-05-07 02:21 32.88604 -97.03919 601 ft 11 kts 270°
2026-05-07 02:22 32.88604 -97.04025 601 ft 14 kts 270°
2026-05-07 02:22 32.88604 -97.04143 601 ft 15 kts 270°
2026-05-07 02:22 32.88605 -97.04271 600 ft 16 kts 270°
2026-05-07 02:22 32.88606 -97.04423 593 ft 17 kts 270°
2026-05-07 02:23 32.88607 -97.04527 591 ft 12 kts 270°
2026-05-07 02:23 32.88607 -97.04632 589 ft 14 kts 270°
2026-05-07 02:23 32.88595 -97.04753 587 ft 14 kts 235°
2026-05-07 02:23 32.88502 -97.04789 588 ft 14 kts 196°
2026-05-07 02:24 32.88405 -97.04806 589 ft 14 kts 180°
2026-05-07 02:24 32.88302 -97.04807 589 ft 16 kts 180°
2026-05-07 02:24 32.88184 -97.04808 587 ft 18 kts 180°
2026-05-07 02:24 32.88058 -97.04808 587 ft 17 kts 180°
2026-05-07 02:25 32.87991 -97.04829 587 ft 9 kts 236°
2026-05-07 02:25 32.87984 -97.04906 587 ft 9 kts 270°
2026-05-07 02:25 32.87984 -97.04942 587 ft 0 kts 269°
2026-05-07 02:25 32.87984 -97.04946 587 ft 1 kts 269°
2026-05-07 02:26 32.87984 -97.04966 587 ft 4 kts 270°
2026-05-07 02:26 32.87984 -97.05007 587 ft 6 kts 270°
2026-05-07 02:26 32.87985 -97.05063 588 ft 7 kts 281°
2026-05-07 02:26 32.88015 -97.05089 589 ft 5 kts 355°
2026-05-07 02:27 32.88022 -97.05089 589 ft 0 kts 359°
2026-05-07 02:27 32.88050 -97.05090 590 ft 23 kts 359°
2026-05-07 02:27 32.88524 -97.05088 589 ft 110 kts
2026-05-07 02:27 32.89526 -97.05081 624 ft 172 kts
2026-05-07 02:28 32.90781 -97.05072 1289 ft 184 kts
2026-05-07 02:28 32.92054 -97.05101 2204 ft 177 kts 360°
2026-05-07 02:28 32.93278 -97.05177 2729 ft 182 kts 359°
2026-05-07 02:28 32.94616 -97.05302 2863 ft 206 kts 351°
2026-05-07 02:29 32.96055 -97.05864 3108 ft 229 kts 343°
2026-05-07 02:29 32.97611 -97.06539 3636 ft 241 kts 342°
2026-05-07 02:29 32.99199 -97.07235 4385 ft 244 kts 340°
2026-05-07 02:29 33.00618 -97.08356 5095 ft 252 kts 308°
2026-05-07 02:30 33.01247 -97.10294 5794 ft 257 kts 277°
2026-05-07 02:30 33.01267 -97.12428 6609 ft 258 kts 268°
2026-05-07 02:30 33.01104 -97.14545 7415 ft 256 kts 264°
2026-05-07 02:30 33.00894 -97.16644 8242 ft 255 kts 263°
2026-05-07 02:31 33.00655 -97.18759 8894 ft 261 kts 261°
2026-05-07 02:31 33.00392 -97.20905 9634 ft 262 kts 261°
2026-05-07 02:31 32.99961 -97.23006 10367 ft 262 kts 248°
2026-05-07 02:31 32.99065 -97.24904 11064 ft 265 kts 235°
2026-05-07 02:32 32.97779 -97.26508 11618 ft 275 kts 227°
2026-05-07 02:32 32.96278 -97.28063 11748 ft 300 kts 218°
2026-05-07 02:32 32.94337 -97.29089 11857 ft 330 kts 198°
2026-05-07 02:32 32.91946 -97.29236 11994 ft 358 kts 184°
2026-05-07 02:33 32.89409 -97.29106 12335 ft 369 kts 184°
2026-05-07 02:33 32.86851 -97.28962 12900 ft 373 kts 184°
2026-05-07 02:33 32.84289 -97.28813 13673 ft 377 kts 184°
2026-05-07 02:33 32.81652 -97.28665 13980 ft 382 kts 184°
2026-05-07 02:34 32.78989 -97.28518 14590 ft 384 kts 184°
2026-05-07 02:34 32.76311 -97.28139 15172 ft 391 kts 178°
2026-05-07 02:34 32.73620 -97.27599 15756 ft 394 kts 178°
2026-05-07 02:34 32.70912 -97.27055 16338 ft 396 kts 178°
2026-05-07 02:35 32.68188 -97.26507 16931 ft 399 kts 178°
2026-05-07 02:35 32.65444 -97.25953 17508 ft 400 kts 178°
2026-05-07 02:35 32.62693 -97.25401 18085 ft 402 kts 178°
2026-05-07 02:35 32.59923 -97.24849 18605 ft 404 kts 179°
2026-05-07 02:36 32.57145 -97.24295 19066 ft 407 kts 179°
2026-05-07 02:36 32.54351 -97.23803 19517 ft 403 kts 185°
2026-05-07 02:36 32.51606 -97.24025 19930 ft 389 kts 200°
2026-05-07 02:36 32.49110 -97.25109 20365 ft 378 kts 215°
2026-05-07 02:37 32.47019 -97.26927 20803 ft 370 kts 229°
2026-05-07 02:37 32.45451 -97.29298 21244 ft 365 kts 242°
2026-05-07 02:37 32.44472 -97.32061 21692 ft 365 kts 255°
2026-05-07 02:37 32.44128 -97.35048 22086 ft 369 kts 265°
2026-05-07 02:38 32.44066 -97.38094 22541 ft 370 kts 266°
2026-05-07 02:38 32.44007 -97.41101 22977 ft 371 kts 266°
2026-05-07 02:38 32.43947 -97.44204 23420 ft 373 kts 265°
2026-05-07 02:38 32.43886 -97.47276 23811 ft 374 kts 265°
2026-05-07 02:39 32.43825 -97.50319 24163 ft 375 kts 265°
2026-05-07 02:39 32.43764 -97.53413 24524 ft 377 kts 265°
2026-05-07 02:39 32.43701 -97.56516 24871 ft 378 kts 265°
2026-05-07 02:39 32.43635 -97.59630 25238 ft 379 kts 265°
2026-05-07 02:40 32.43567 -97.62761 25584 ft 381 kts 265°
2026-05-07 02:40 32.43497 -97.65903 25910 ft 382 kts 264°
2026-05-07 02:40 32.43427 -97.69050 26244 ft 383 kts 264°
2026-05-07 02:40 32.43357 -97.72200 26428 ft 381 kts 264°
2026-05-07 02:41 32.43287 -97.75349 26625 ft 384 kts 264°
2026-05-07 02:41 32.43213 -97.78515 26916 ft 386 kts 264°
2026-05-07 02:41 32.43138 -97.81700 27216 ft 388 kts 264°
2026-05-07 02:41 32.43062 -97.84901 27516 ft 390 kts 264°
2026-05-07 02:42 32.42985 -97.88111 27807 ft 391 kts 264°
2026-05-07 02:42 32.42907 -97.91329 28200 ft 390 kts 264°
2026-05-07 02:42 32.42833 -97.94532 28640 ft 388 kts 264°
2026-05-07 02:42 32.42759 -97.97718 29068 ft 386 kts 264°
2026-05-07 02:43 32.42685 -98.00887 29476 ft 385 kts 263°
2026-05-07 02:43 32.42608 -98.04052 29900 ft 384 kts 263°
2026-05-07 02:43 32.42529 -98.07199 30295 ft 382 kts 263°
2026-05-07 02:43 32.42451 -98.10339 30662 ft 380 kts 263°
2026-05-07 02:44 32.42371 -98.13454 31032 ft 378 kts 263°
2026-05-07 02:44 32.42291 -98.16553 31405 ft 376 kts 263°
2026-05-07 02:44 32.42210 -98.19639 31779 ft 374 kts 263°
2026-05-07 02:44 32.42131 -98.22704 32147 ft 372 kts 262°
2026-05-07 02:45 32.42050 -98.25752 32520 ft 370 kts 262°
2026-05-07 02:45 32.41969 -98.28785 32870 ft 367 kts 262°
2026-05-07 02:45 32.41885 -98.31799 33208 ft 366 kts 262°
2026-05-07 02:45 32.41802 -98.34799 33519 ft 364 kts 262°
2026-05-07 02:46 32.41723 -98.37738 33890 ft 361 kts 262°
2026-05-07 02:46 32.41643 -98.40699 34231 ft 359 kts 262°
2026-05-07 02:46 32.41561 -98.43641 34525 ft 357 kts 262°
2026-05-07 02:46 32.41477 -98.46570 34829 ft 355 kts 262°
2026-05-07 02:47 32.41392 -98.49485 35111 ft 354 kts 262°
2026-05-07 02:47 32.41308 -98.52390 35384 ft 353 kts 262°
2026-05-07 02:47 32.41222 -98.55291 35662 ft 352 kts 262°
2026-05-07 02:47 32.41164 -98.57240 35848 ft 351 kts 262°
2026-05-07 02:48 32.41051 -98.61061 36057 ft 350 kts 262°
2026-05-07 02:48 32.40995 -98.63007 36086 ft 350 kts 262°
2026-05-07 02:48 32.40827 -98.68718 36097 ft 349 kts 262°
2026-05-07 02:49 32.40653 -98.74459 36101 ft 349 kts 262°
2026-05-07 02:49 32.40479 -98.80204 36101 ft 349 kts 262°
2026-05-07 02:50 32.40303 -98.85947 36100 ft 349 kts 262°
2026-05-07 02:50 32.40111 -98.91691 36105 ft 350 kts 262°
2026-05-07 02:51 32.39920 -98.97445 36052 ft 350 kts 262°
2026-05-07 02:51 32.39739 -99.03208 36055 ft 350 kts 262°
2026-05-07 02:52 32.39548 -99.08970 36057 ft 351 kts 262°
2026-05-07 02:52 32.39352 -99.14738 36074 ft 351 kts 262°
2026-05-07 02:53 32.39158 -99.20504 36070 ft 351 kts 262°
2026-05-07 02:53 32.38963 -99.26273 36069 ft 351 kts 262°
2026-05-07 02:54 32.38766 -99.32044 36068 ft 351 kts 262°
2026-05-07 02:54 32.38563 -99.37814 36079 ft 351 kts 262°
2026-05-07 02:55 32.38356 -99.43581 36083 ft 351 kts 262°
2026-05-07 02:55 32.38146 -99.49349 36107 ft 351 kts 262°
2026-05-07 02:56 32.37933 -99.55118 36103 ft 351 kts 262°
2026-05-07 02:56 32.37723 -99.60843 36121 ft 351 kts 262°
2026-05-07 02:57 32.37502 -99.66605 36117 ft 350 kts 261°
2026-05-07 02:57 32.37281 -99.72361 36118 ft 350 kts 261°
2026-05-07 02:58 32.37062 -99.78111 36066 ft 350 kts 262°
2026-05-07 02:58 32.36839 -99.83861 36058 ft 350 kts 261°
2026-05-07 02:59 32.36610 -99.89613 36057 ft 350 kts 261°
2026-05-07 02:59 32.36383 -99.95373 36057 ft 351 kts 261°
2026-05-07 03:00 32.36153 -100.01135 36053 ft 351 kts 261°
2026-05-07 03:00 32.35921 -100.06910 36054 ft 351 kts 261°
2026-05-07 03:01 32.35679 -100.12684 36054 ft 352 kts 261°
2026-05-07 03:01 32.35432 -100.18454 36046 ft 351 kts 261°
2026-05-07 03:02 32.35191 -100.24229 36038 ft 352 kts 261°
2026-05-07 03:02 32.34946 -100.30019 36018 ft 352 kts 261°
2026-05-07 03:03 32.34696 -100.35774 36099 ft 353 kts 261°
2026-05-07 03:03 32.34444 -100.41574 36108 ft 353 kts 261°
2026-05-07 03:04 32.34317 -100.44474 36007 ft 353 kts 261°
2026-05-07 03:04 32.34188 -100.47379 36007 ft 353 kts 261°
2026-05-07 03:04 32.33928 -100.53181 36010 ft 354 kts 261°
2026-05-07 03:05 32.33669 -100.58992 35998 ft 354 kts 261°
2026-05-07 03:05 32.33408 -100.64811 35992 ft 355 kts 261°
2026-05-07 03:06 32.33139 -100.70645 35992 ft 356 kts 261°
2026-05-07 03:06 32.32864 -100.76490 35989 ft 356 kts 261°
2026-05-07 03:07 32.32592 -100.82341 35988 ft 357 kts 261°
2026-05-07 03:07 32.32320 -100.88195 35986 ft 357 kts 261°
2026-05-07 03:08 32.32043 -100.94049 35987 ft 357 kts 261°
2026-05-07 03:08 32.31758 -100.99902 35988 ft 357 kts 260°
2026-05-07 03:09 32.31474 -101.05760 35984 ft 357 kts 261°
2026-05-07 03:09 32.31191 -101.11611 35984 ft 357 kts 260°
2026-05-07 03:10 32.30901 -101.17464 35988 ft 357 kts 260°
2026-05-07 03:10 32.30607 -101.23324 35989 ft 357 kts 260°
2026-05-07 03:11 32.30304 -101.29180 36030 ft 357 kts 260°
2026-05-07 03:11 32.30005 -101.35001 36026 ft 358 kts 260°
2026-05-07 03:12 32.29710 -101.40875 36038 ft 359 kts 260°
2026-05-07 03:12 32.29405 -101.46768 36050 ft 359 kts 260°
2026-05-07 03:13 32.29097 -101.52657 36055 ft 360 kts 260°
2026-05-07 03:13 32.28786 -101.58564 36060 ft 360 kts 260°
2026-05-07 03:14 32.28470 -101.64467 36053 ft 360 kts 260°
2026-05-07 03:15 32.27990 -101.73332 36030 ft 361 kts 260°
2026-05-07 03:15 32.27666 -101.79251 36008 ft 361 kts 260°
2026-05-07 03:16 32.27345 -101.85179 35993 ft 362 kts 260°
2026-05-07 03:16 32.27018 -101.91110 35993 ft 362 kts 260°
2026-05-07 03:17 32.26685 -101.97006 36005 ft 362 kts 260°
2026-05-07 03:17 32.26349 -102.02940 36012 ft 362 kts 260°
2026-05-07 03:18 32.26014 -102.08855 36014 ft 359 kts 260°
2026-05-07 03:18 32.25685 -102.14751 36011 ft 360 kts 260°
2026-05-07 03:19 32.25347 -102.20649 35976 ft 360 kts 260°
2026-05-07 03:19 32.24998 -102.26551 35978 ft 360 kts 260°
2026-05-07 03:20 32.24642 -102.32462 35977 ft 361 kts 260°
2026-05-07 03:20 32.24294 -102.38368 35984 ft 361 kts 260°
2026-05-07 03:21 32.23950 -102.44263 35978 ft 356 kts 260°
2026-05-07 03:21 32.23609 -102.50060 35955 ft 353 kts 259°
2026-05-07 03:22 32.23255 -102.55853 35953 ft 354 kts 259°
2026-05-07 03:22 32.22893 -102.61656 35949 ft 354 kts 259°
2026-05-07 03:23 32.22535 -102.67465 35950 ft 355 kts 259°
2026-05-07 03:23 32.22179 -102.73281 35954 ft 355 kts 259°
2026-05-07 03:24 32.21817 -102.79094 35991 ft 352 kts 260°
2026-05-07 03:24 32.21471 -102.84742 35926 ft 341 kts 260°
2026-05-07 03:25 32.21119 -102.90324 35930 ft 341 kts 260°
2026-05-07 03:25 32.20759 -102.95884 35920 ft 343 kts 260°
2026-05-07 03:26 32.20394 -103.01501 35915 ft 343 kts 260°
2026-05-07 03:26 32.20028 -103.07125 35916 ft 344 kts 260°
2026-05-07 03:27 32.19658 -103.12754 35926 ft 344 kts 259°
2026-05-07 03:27 32.19287 -103.18389 35895 ft 345 kts 260°
2026-05-07 03:28 32.18915 -103.24053 35893 ft 347 kts 260°
2026-05-07 03:28 32.18542 -103.29729 35943 ft 347 kts 260°
2026-05-07 03:29 32.18166 -103.35404 35933 ft 346 kts 260°
2026-05-07 03:29 32.17784 -103.41070 35929 ft 346 kts 260°
2026-05-07 03:30 32.17402 -103.46731 35930 ft 346 kts 260°
2026-05-07 03:30 32.17017 -103.52383 35878 ft 346 kts 260°
2026-05-07 03:31 32.16628 -103.58061 35881 ft 348 kts 260°
2026-05-07 03:31 32.16231 -103.63760 35888 ft 349 kts 260°
2026-05-07 03:32 32.15830 -103.69480 35894 ft 350 kts 259°
2026-05-07 03:32 32.15427 -103.75164 35900 ft 350 kts 260°
2026-05-07 03:33 32.15027 -103.80895 35901 ft 350 kts 260°
2026-05-07 03:33 32.14625 -103.86618 35901 ft 350 kts 259°
2026-05-07 03:34 32.14214 -103.92348 35898 ft 350 kts 259°
2026-05-07 03:34 32.13800 -103.98077 35901 ft 351 kts 259°
2026-05-07 03:35 32.13389 -104.03815 35902 ft 351 kts 259°
2026-05-07 03:35 32.12975 -104.09555 35966 ft 351 kts 259°
2026-05-07 03:36 32.12553 -104.15298 35978 ft 352 kts 259°
2026-05-07 03:36 32.12127 -104.21045 35986 ft 352 kts 259°
2026-05-07 03:37 32.11768 -104.25828 35985 ft 352 kts 259°
2026-05-07 03:37 32.11336 -104.31589 35982 ft 353 kts 259°
2026-05-07 03:38 32.10903 -104.37357 35983 ft 353 kts 259°
2026-05-07 03:38 32.10469 -104.43130 35974 ft 353 kts 259°
2026-05-07 03:39 32.10035 -104.48903 35965 ft 354 kts 259°
2026-05-07 03:39 32.09600 -104.54682 35958 ft 354 kts 259°
2026-05-07 03:40 32.09152 -104.60465 35950 ft 354 kts 259°
2026-05-07 03:40 32.08699 -104.66244 35958 ft 354 kts 259°
2026-05-07 03:41 32.08245 -104.72033 35950 ft 355 kts 259°
2026-05-07 03:41 32.07794 -104.77818 35951 ft 354 kts 259°
2026-05-07 03:42 32.07343 -104.83604 35952 ft 354 kts 259°
2026-05-07 03:42 32.06888 -104.89380 35952 ft 354 kts 259°
2026-05-07 03:43 32.06427 -104.95156 35959 ft 354 kts 259°
2026-05-07 03:43 32.05968 -105.00930 35955 ft 354 kts 259°
2026-05-07 03:44 32.05508 -105.06692 35952 ft 353 kts 259°
2026-05-07 03:44 32.05033 -105.12451 35947 ft 353 kts 259°
2026-05-07 03:45 32.04561 -105.18206 35945 ft 353 kts 259°
2026-05-07 03:45 32.04091 -105.23924 35950 ft 353 kts 259°
2026-05-07 03:46 32.03622 -105.29685 35962 ft 353 kts 259°
2026-05-07 03:46 32.03147 -105.35449 35957 ft 354 kts 259°
2026-05-07 03:47 32.02666 -105.41216 35954 ft 354 kts 259°
2026-05-07 03:47 32.02180 -105.46993 35952 ft 354 kts 259°
2026-05-07 03:48 32.01689 -105.52771 35961 ft 355 kts 259°
2026-05-07 03:48 32.01200 -105.58553 35959 ft 355 kts 259°
2026-05-07 03:49 32.00712 -105.64332 35944 ft 354 kts 259°
2026-05-07 03:49 32.00217 -105.70090 35933 ft 356 kts 258°
2026-05-07 03:50 31.99716 -105.75911 35928 ft 358 kts 258°
2026-05-07 03:50 31.99214 -105.81748 35938 ft 359 kts 258°
2026-05-07 03:51 31.98704 -105.87596 35941 ft 359 kts 258°
2026-05-07 03:51 31.98454 -105.90442 36563 ft 359 kts 261°
2026-05-07 03:51 31.98192 -105.93409 35755 ft 365 kts 258°
2026-05-07 03:52 31.97678 -105.99301 35821 ft 359 kts 258°
2026-05-07 03:52 31.97421 -106.02245 35930 ft 361 kts 258°
2026-05-07 03:52 31.97162 -106.05188 35965 ft 361 kts 258°
2026-05-07 03:53 31.96636 -106.11071 35988 ft 361 kts 258°
2026-05-07 03:53 31.96105 -106.16956 36010 ft 361 kts 258°
2026-05-07 03:54 31.95576 -106.22834 36030 ft 361 kts 258°
2026-05-07 03:54 31.95359 -106.28735 36050 ft 371 kts 269°
2026-05-07 03:55 31.96076 -106.34775 36061 ft 373 kts 269°
2026-05-07 03:55 31.96787 -106.40824 36073 ft 373 kts 269°
2026-05-07 03:56 31.97492 -106.46877 36054 ft 373 kts 269°
2026-05-07 03:56 31.98193 -106.52925 36061 ft 373 kts 269°
2026-05-07 03:57 31.98890 -106.59004 36091 ft 375 kts 269°
2026-05-07 03:57 31.99590 -106.65092 36109 ft 375 kts 269°
2026-05-07 03:58 32.00288 -106.71172 36106 ft 375 kts 269°
2026-05-07 03:58 32.00997 -106.77268 36090 ft 376 kts 270°
2026-05-07 03:59 32.01702 -106.83365 36066 ft 376 kts 269°
2026-05-07 03:59 32.02388 -106.89427 36011 ft 376 kts 270°
2026-05-07 04:00 32.03078 -106.95529 36019 ft 376 kts 270°
2026-05-07 04:00 32.03763 -107.01644 36015 ft 377 kts 270°
2026-05-07 04:01 32.04446 -107.07772 35996 ft 378 kts 270°
2026-05-07 04:01 32.05129 -107.13922 35978 ft 379 kts 270°
2026-05-07 04:02 32.05817 -107.20086 35969 ft 380 kts 270°
2026-05-07 04:02 32.06500 -107.26270 35943 ft 380 kts 270°
2026-05-07 04:03 32.07175 -107.32461 35957 ft 381 kts 270°
2026-05-07 04:03 32.07855 -107.38642 35970 ft 380 kts 270°
2026-05-07 04:04 32.08527 -107.44837 36005 ft 381 kts 270°
2026-05-07 04:04 32.09199 -107.51041 36030 ft 381 kts 270°
2026-05-07 04:05 32.09874 -107.57252 36055 ft 382 kts 270°
2026-05-07 04:05 32.10543 -107.63479 36078 ft 384 kts 269°
2026-05-07 04:06 32.11212 -107.69706 36091 ft 382 kts 270°
2026-05-07 04:06 32.11880 -107.75928 36105 ft 382 kts 269°
2026-05-07 04:07 32.12529 -107.82160 35981 ft 383 kts 269°
2026-05-07 04:07 32.13177 -107.88375 35982 ft 384 kts 269°
2026-05-07 04:08 32.13839 -107.94626 35982 ft 384 kts 270°
2026-05-07 04:08 32.14502 -108.00881 35982 ft 384 kts 269°
2026-05-07 04:09 32.15157 -108.07139 35988 ft 384 kts 269°
2026-05-07 04:09 32.15800 -108.13389 35987 ft 384 kts 269°
2026-05-07 04:10 32.16442 -108.19651 35988 ft 384 kts 269°
2026-05-07 04:10 32.17086 -108.25912 35990 ft 384 kts 269°
2026-05-07 04:11 32.17718 -108.32174 35994 ft 384 kts 269°
2026-05-07 04:11 32.18355 -108.38444 36025 ft 384 kts 269°
2026-05-07 04:12 32.18985 -108.44706 36067 ft 385 kts 269°
2026-05-07 04:12 32.19614 -108.50985 36088 ft 385 kts 269°
2026-05-07 04:13 32.20240 -108.57271 36108 ft 386 kts 269°
2026-05-07 04:13 32.20869 -108.63575 36130 ft 387 kts 269°
2026-05-07 04:14 32.21502 -108.69885 36141 ft 387 kts 269°
2026-05-07 04:14 32.22121 -108.76195 35981 ft 387 kts 269°
2026-05-07 04:15 32.22734 -108.82507 35982 ft 387 kts 269°
2026-05-07 04:15 32.23350 -108.88828 35986 ft 387 kts 269°
2026-05-07 04:16 32.23959 -108.95155 35993 ft 388 kts 269°
2026-05-07 04:16 32.24565 -109.01448 35974 ft 388 kts 269°
2026-05-07 04:17 32.25173 -109.07790 35979 ft 389 kts 269°
2026-05-07 04:17 32.25779 -109.14136 35990 ft 389 kts 269°
2026-05-07 04:18 32.26377 -109.20493 35974 ft 390 kts 269°
2026-05-07 04:18 32.27079 -109.26857 35973 ft 396 kts 275°
2026-05-07 04:19 32.28596 -109.33173 35968 ft 400 kts 277°
2026-05-07 04:19 32.30149 -109.39494 35972 ft 401 kts 277°
2026-05-07 04:20 32.31704 -109.45817 35969 ft 400 kts 277°
2026-05-07 04:20 32.33250 -109.52150 35967 ft 402 kts 277°
2026-05-07 04:21 32.35549 -109.61696 35964 ft 403 kts 277°
2026-05-07 04:21 32.37087 -109.68081 35981 ft 404 kts 277°
2026-05-07 04:22 32.38627 -109.74441 35988 ft 406 kts 278°
2026-05-07 04:22 32.40177 -109.80866 36011 ft 407 kts 278°
2026-05-07 04:23 32.41729 -109.87330 35985 ft 409 kts 278°
2026-05-07 04:23 32.43279 -109.93817 35984 ft 410 kts 278°
2026-05-07 04:24 32.44833 -110.00324 35982 ft 411 kts 278°
2026-05-07 04:24 32.46381 -110.06831 35984 ft 412 kts 278°
2026-05-07 04:25 32.47930 -110.13373 35994 ft 412 kts 278°
2026-05-07 04:25 32.49216 -110.18809 35992 ft 413 kts 278°
2026-05-07 04:26 32.50768 -110.25377 35980 ft 415 kts 278°
2026-05-07 04:26 32.52322 -110.31969 35975 ft 416 kts 278°
2026-05-07 04:27 32.53883 -110.38588 35981 ft 418 kts 279°
2026-05-07 04:27 32.55447 -110.45226 35978 ft 419 kts 279°
2026-05-07 04:28 32.57002 -110.51883 35976 ft 420 kts 279°
2026-05-07 04:28 32.58559 -110.58574 35973 ft 421 kts 279°
2026-05-07 04:29 32.60109 -110.65236 35967 ft 423 kts 279°
2026-05-07 04:29 32.61670 -110.71963 35971 ft 424 kts 279°
2026-05-07 04:30 32.63235 -110.78712 35984 ft 424 kts 279°
2026-05-07 04:30 32.64792 -110.85471 35987 ft 425 kts 279°
2026-05-07 04:31 32.66353 -110.92247 35978 ft 427 kts 279°
2026-05-07 04:31 32.68608 -110.98836 35825 ft 441 kts 297°
2026-05-07 04:32 32.70441 -111.01784 35581 ft 448 kts 306°
2026-05-07 04:32 32.72581 -111.04497 35240 ft 451 kts 308°
2026-05-07 04:32 32.74746 -111.07253 34138 ft 459 kts 307°
2026-05-07 04:32 32.76908 -111.10052 32881 ft 461 kts 307°
2026-05-07 04:33 32.79068 -111.12872 31613 ft 461 kts 308°
2026-05-07 04:33 32.81219 -111.15685 30439 ft 461 kts 310°
2026-05-07 04:33 32.83381 -111.18503 29307 ft 458 kts 310°
2026-05-07 04:33 32.85483 -111.21230 28997 ft 435 kts 310°
2026-05-07 04:34 32.87465 -111.23794 28717 ft 408 kts 312°
2026-05-07 04:34 32.89349 -111.26239 27951 ft 396 kts 313°
2026-05-07 04:34 32.91195 -111.28642 27076 ft 391 kts 314°
2026-05-07 04:34 32.93017 -111.31015 26182 ft 386 kts 314°
2026-05-07 04:35 32.94819 -111.33364 25295 ft 382 kts 315°
2026-05-07 04:35 32.96602 -111.35687 24426 ft 379 kts 315°
2026-05-07 04:35 32.98370 -111.37993 23575 ft 375 kts 316°
2026-05-07 04:35 33.00120 -111.40278 22608 ft 371 kts 316°
2026-05-07 04:36 33.01848 -111.42534 21705 ft 366 kts 316°
2026-05-07 04:36 33.03457 -111.44849 20843 ft 362 kts 303°
2026-05-07 04:36 33.04389 -111.47610 20028 ft 359 kts 282°
2026-05-07 04:36 33.04463 -111.50557 19221 ft 355 kts 260°
2026-05-07 04:37 33.03928 -111.53411 18397 ft 351 kts 257°
2026-05-07 04:37 33.03355 -111.56217 17530 ft 347 kts 256°
2026-05-07 04:37 33.02783 -111.58991 16654 ft 343 kts 256°
2026-05-07 04:37 33.02218 -111.61737 15801 ft 339 kts 256°
2026-05-07 04:38 33.01664 -111.64450 14987 ft 336 kts 257°
2026-05-07 04:38 33.01123 -111.67109 14200 ft 333 kts 257°
2026-05-07 04:38 33.00581 -111.69775 13397 ft 330 kts 257°
2026-05-07 04:38 33.00045 -111.72415 12551 ft 326 kts 257°
2026-05-07 04:39 32.99514 -111.75029 11748 ft 323 kts 257°
2026-05-07 04:39 32.98988 -111.77602 10967 ft 319 kts 256°
2026-05-07 04:39 32.98463 -111.80161 10220 ft 316 kts 257°
2026-05-07 04:39 32.97941 -111.82695 9419 ft 314 kts 256°
2026-05-07 04:40 32.97426 -111.85198 8641 ft 309 kts 256°
2026-05-07 04:40 32.96918 -111.87671 7907 ft 305 kts 256°
2026-05-07 04:40 32.96415 -111.90127 7505 ft 304 kts 256°
2026-05-07 04:40 32.95919 -111.92559 7189 ft 301 kts 256°
2026-05-07 04:41 32.95429 -111.94958 6910 ft 296 kts 256°
2026-05-07 04:41 32.94944 -111.97316 6839 ft 292 kts 256°
2026-05-07 04:41 32.94458 -111.99665 6777 ft 292 kts 256°
2026-05-07 04:41 32.93969 -112.02013 6710 ft 292 kts 256°
2026-05-07 04:42 32.93482 -112.04353 6633 ft 291 kts 256°
2026-05-07 04:42 32.92997 -112.06690 6550 ft 291 kts 256°
2026-05-07 04:42 32.92512 -112.09028 6476 ft 290 kts 256°
2026-05-07 04:42 32.92028 -112.11359 6394 ft 290 kts 256°
2026-05-07 04:43 32.91617 -112.13666 6308 ft 288 kts 266°
2026-05-07 04:43 32.91752 -112.16017 6225 ft 284 kts 286°
2026-05-07 04:43 32.92517 -112.18159 6151 ft 281 kts 305°
2026-05-07 04:43 32.93764 -112.19922 6076 ft 278 kts 316°
2026-05-07 04:44 32.95090 -112.21590 5997 ft 276 kts 315°
2026-05-07 04:44 32.96401 -112.23244 5923 ft 274 kts 315°
2026-05-07 04:44 32.97703 -112.24894 5846 ft 273 kts 314°
2026-05-07 04:44 32.98999 -112.26545 5763 ft 272 kts 314°
2026-05-07 04:45 33.00290 -112.28193 5684 ft 272 kts 314°
2026-05-07 04:45 33.01584 -112.29838 5610 ft 272 kts 314°
2026-05-07 04:45 33.02878 -112.31481 5534 ft 271 kts 314°
2026-05-07 04:45 33.04162 -112.33118 5467 ft 270 kts 314°
2026-05-07 04:46 33.05446 -112.34756 5385 ft 270 kts 314°
2026-05-07 04:46 33.06727 -112.36390 5303 ft 270 kts 314°
2026-05-07 04:46 33.09282 -112.39651 5158 ft 269 kts 314°
2026-05-07 04:47 33.10558 -112.41284 5088 ft 268 kts 314°
2026-05-07 04:47 33.11829 -112.42908 5014 ft 268 kts 314°
2026-05-07 04:47 33.13210 -112.44382 4926 ft 266 kts 327°
2026-05-07 04:47 33.14793 -112.45511 4812 ft 262 kts 330°
2026-05-07 04:48 33.16341 -112.46586 4686 ft 253 kts 329°
2026-05-07 04:48 33.17858 -112.47641 4573 ft 257 kts 329°
2026-05-07 04:48 33.19420 -112.48728 4472 ft 262 kts 329°
2026-05-07 04:48 33.20992 -112.49822 4343 ft 261 kts 329°
2026-05-07 04:49 33.22033 -112.50545 4268 ft 262 kts 329°
2026-05-07 04:49 33.24157 -112.51965 4113 ft 260 kts 337°
2026-05-07 04:49 33.25895 -112.52344 4019 ft 251 kts
2026-05-07 04:49 33.27551 -112.51858 3854 ft 244 kts 24°
2026-05-07 04:50 33.28908 -112.50705 3631 ft 235 kts 38°
2026-05-07 04:50 33.30137 -112.49482 3441 ft 224 kts 37°
2026-05-07 04:50 33.31293 -112.48338 3280 ft 207 kts 37°
2026-05-07 04:50 33.32351 -112.47297 3098 ft 191 kts 37°
2026-05-07 04:51 33.33324 -112.46338 2951 ft 174 kts 37°
2026-05-07 04:51 33.34209 -112.45464 2813 ft 161 kts 37°
2026-05-07 04:51 33.35053 -112.44634 2576 ft 156 kts 37°
2026-05-07 04:51 33.35885 -112.43820 2370 ft 154 kts 37°
2026-05-07 04:52 33.36715 -112.43008 2165 ft 153 kts 36°
2026-05-07 04:52 33.37537 -112.42193 1944 ft 153 kts 38°
2026-05-07 04:52 33.38355 -112.41380 1758 ft 152 kts 38°
2026-05-07 04:52 33.39170 -112.40581 1510 ft 150 kts 39°
2026-05-07 04:53 33.39969 -112.39773 1346 ft 150 kts 39°
2026-05-07 04:53 33.40782 -112.38978 1189 ft 152 kts 39°
2026-05-07 04:53 33.41620 -112.38166 1387 ft 160 kts 39°
2026-05-07 04:53 33.42533 -112.37259 2063 ft 183 kts 39°
2026-05-07 04:54 33.43570 -112.36207 2708 ft 206 kts 38°
2026-05-07 04:54 33.44732 -112.35020 2966 ft 229 kts 39°
2026-05-07 04:54 33.45970 -112.33786 3005 ft 233 kts 33°
2026-05-07 04:54 33.47467 -112.33166 2935 ft 228 kts 360°
2026-05-07 04:55 33.48967 -112.33618 2943 ft 223 kts 327°
2026-05-07 04:55 33.49981 -112.34958 2997 ft 218 kts 296°
2026-05-07 04:55 33.50692 -112.36560 2992 ft 218 kts 298°
2026-05-07 04:55 33.51161 -112.38256 2985 ft 216 kts 271°
2026-05-07 04:56 33.50757 -112.39971 2989 ft 218 kts 238°
2026-05-07 04:56 33.49677 -112.41254 2995 ft 221 kts 221°
2026-05-07 04:56 33.48472 -112.42389 2990 ft 220 kts 220°
2026-05-07 04:56 33.47261 -112.43506 3009 ft 220 kts 219°
2026-05-07 04:57 33.46041 -112.44629 3009 ft 220 kts 219°
2026-05-07 04:57 33.44825 -112.45745 3006 ft 220 kts 220°
2026-05-07 04:57 33.43996 -112.46495 3008 ft 222 kts 220°
2026-05-07 04:57 33.42349 -112.47958 3011 ft 223 kts 219°
2026-05-07 04:58 33.41102 -112.49065 3007 ft 222 kts 219°
2026-05-07 04:58 33.39861 -112.50169 3009 ft 222 kts 219°
2026-05-07 04:58 33.38557 -112.51165 3005 ft 226 kts 204°
2026-05-07 04:58 33.36988 -112.51306 3007 ft 232 kts 170°
2026-05-07 04:59 33.35572 -112.50391 3003 ft 236 kts 137°
2026-05-07 04:59 33.34678 -112.48752 3005 ft 237 kts 113°
2026-05-07 04:59 33.34328 -112.46848 2928 ft 233 kts 87°
2026-05-07 04:59 33.34773 -112.45149 2804 ft 200 kts 54°
2026-05-07 05:00 33.35669 -112.44023 2649 ft 178 kts 40°
2026-05-07 05:00 33.36534 -112.43059 2405 ft 162 kts 40°
2026-05-07 05:00 33.37355 -112.42167 2214 ft 157 kts 36°
2026-05-07 05:00 33.38191 -112.41342 1985 ft 154 kts 37°
2026-05-07 05:01 33.39042 -112.40575 1719 ft 152 kts 35°
2026-05-07 05:01 33.39885 -112.39812 1440 ft 152 kts 37°
2026-05-07 05:01 33.40714 -112.39026 1189 ft 152 kts 38°
2026-05-07 05:01 33.41550 -112.38259 986 ft 151 kts 38°
2026-05-07 05:02 33.42272 -112.37591 961 ft 107 kts 38°
2026-05-07 05:02 33.42724 -112.37170 979 ft 58 kts 38°
2026-05-07 05:02 33.42934 -112.36975 977 ft 31 kts 38°
2026-05-07 05:02 33.43084 -112.36822 980 ft 19 kts 69°
2026-05-07 05:03 33.43012 -112.36732 982 ft 16 kts 198°
2026-05-07 05:03 33.42910 -112.36827 981 ft 20 kts 218°
2026-05-07 05:03 33.42801 -112.36930 980 ft 19 kts 217°
2026-05-07 05:03 33.42715 -112.36895 968 ft 15 kts 122°
2026-05-07 05:04 33.42647 -112.36787 964 ft 18 kts 129°
2026-05-07 05:04 33.42567 -112.36695 966 ft 16 kts 158°
2026-05-07 05:04 33.42492 -112.36761 969 ft 15 kts 277°
2026-05-07 05:04 33.42512 -112.36779 966 ft 0 kts 95°
2026-05-07 05:06 33.42512 -112.36780 966 ft 0 kts 95°